sat.trackr.live / text

‹ back to catalog

STARLINK-34670

NORAD 65424 · 2025-192W

PAYLOAD ACTIVE UNKNOWN

§ Identity

Operator
Country
US
Launch date
2025-08-31
Launch site
AFETR
Launch vehicle
Mass (kg)
RCS (m²)

Purposes: comms

External: N2YO · Heavens-Above · Gunter

§ Orbital elements

Epoch: 2026-09-20T16:41:39.274080Z

Period
94.01 min
Inclination
53.1567°
Eccentricity
0.0001364
Mean motion
15.31738173 rev/d
Perigee alt
469.7 km
Apogee alt
471.6 km
Semi-major
6,848.8 km
B*
4.2945e-4
RAAN
44.9228°
Arg perigee
78.2419°
Mean anomaly
281.8736°
Rev number
5,926

§ Raw data

STARLINK-346701 65424U 25192W   26263.69559345  .00013000  00000+0  42945-3 0  99952 65424  53.1567  44.9228 0001364  78.2419 281.8736 15.31738173 59260

JSON: /api/v1/satellites/65424 · /tle

For live sub-satellite position, see the globe view (requires WebGL).

§ Visibility from observer

Set your observer location to see the next 7 days of passes ≥ 10°. The values pass through the URL so the page stays shareable.

No JS? Fill the form by hand. The geolocation button needs JavaScript.